This demonstration page uses our WeatherBlox Daily Observations layout. Learn more.

Left ArrowRight Arrow

39.08367, -84.50855

Hourly Observations for March 25, 2016

Temp ( °F °C ) Dew Point ( °F °C ) Humidity (%) Winds ( mph kmh ) Pressure ( in mb ) Visibility ( mi km ) Precip ( " mm )
12:53 am 00:53 Cloudy 50 10 42 5.6 74 74 W 13 20 29.74 1007 10 16.0934 N/A
1:53 am 01:53 Cloudy 50 10 42 5.6 74 74 W 15 24 29.75 1008 10 16.0934 N/A
2:00 am 02:00 Cloudy 48 9 43 6 82 82 WNW 13 20 29.8 1009 10 16.0934 N/A
2:53 am 02:53 Cloudy 47 8.3 40 4.4 77 77 W 17 28 29.78 1009 10 16.0934 N/A
3:53 am 03:53 Cloudy 45 7.2 39 3.9 80 80 WNW 12 19 29.81 1010 10 16.0934 N/A
4:51 am 04:51 Cloudy 41 5 37 3 87 87 NW 10 17 29.88 1012 10 16.0934 N/A
4:53 am 04:53 Cloudy 41 5 37 2.8 86 86 NW 12 19 29.85 1011 10 16.0934 N/A
5:53 am 05:53 Cloudy 40 4.4 34 1.1 79 79 NW 9 15 29.88 1012 10 16.0934 N/A
6:31 am 06:31 Cloudy 39 3.9 31 -0.6 73 73 WNW 12 19 29.94 1014 10 16.0934 N/A
6:41 am 06:41 Cloudy 39 3.9 31 -0.6 73 73 NNW 12 19 29.94 1014 10 16.0934 N/A
6:53 am 06:53 Cloudy 38 3.3 31 -0.6 76 76 NNW 13 20 29.93 1014 10 16.0934 N/A
7:53 am 07:53 Cloudy 37 2.8 30 -1.1 76 76 NW 14 22 29.96 1015 10 16.0934 N/A
8:53 am 08:53 Cloudy 37 2.8 30 -1.1 76 76 NW 7 11 30.01 1016 10 16.0934 N/A
9:53 am 09:53 Cloudy 37 2.8 30 -1.1 76 76 WNW 9 15 30.04 1017 10 16.0934 N/A
10:53 am 10:53 Cloudy 37 2.8 30 -1.1 76 76 NNW 8 13 30.07 1018 10 16.0934 N/A
11:53 am 11:53 Cloudy 40 4.4 30 -1.1 68 68 NNW 9 15 30.07 1018 10 16.0934 N/A
12:53 pm 12:53 Cloudy 40 4.4 29 -1.7 65 65 N N/A 30.08 1019 10 16.0934 N/A
1:14 pm 13:14 Cloudy 43 6 30 -1 61 61 undefined N/A 30.09 1019 10 16.0934 N/A
1:53 pm 13:53 Mostly Cloudy 43 6.1 31 -0.6 63 63 VRB 5 7 30.09 1019 10 16.0934 N/A
2:53 pm 14:53 Partly Cloudy 46 7.8 32 undefined 58 58 N 6 9 30.08 1019 10 16.0934 N/A
3:53 pm 15:53 Sunny 46 7.8 32 undefined 58 58 ENE 6 9 30.08 1019 10 16.0934 N/A
4:53 pm 16:53 Sunny 47 8.3 32 undefined 56 56 NE 7 11 30.08 1019 10 16.0934 N/A
5:53 pm 17:53 Sunny 48 8.9 32 undefined 54 54 E 3 6 30.09 1019 10 16.0934 N/A
6:53 pm 18:53 Sunny 47 8.3 32 undefined 56 56 NNE 6 9 30.1 1019 10 16.0934 N/A
7:53 pm 19:53 Sunny 42 5.6 32 undefined 68 68 ENE 6 9 30.11 1020 10 16.0934 N/A
8:53 pm 20:53 Clear 41 5 32 undefined 70 70 ENE 5 7 30.14 1021 10 16.0934 N/A
9:53 pm 21:53 Clear 39 3.9 33 0.6 79 79 N N/A 30.17 1022 10 16.0934 N/A
10:53 pm 22:53 Clear 36 2.2 34 1.1 93 93 N N/A 30.19 1022 10 16.0934 N/A
11:53 pm 23:53 Clear 35 1.7 33 0.6 93 93 NE 3 6 30.2 1023 10 16.0934 N/A

Powered by AerisWeather